| time (UTC) | temp F | wind direction | speed MPH | gust MPH | rain 1hr in | rain 24hr in | rain mn in | humidity % | barometer mb |
| 20260503003012 | 60 | 219 | 2.0 | 8.0 | 0.00 | 0.00 | 0.00 | 51 | 1012.4 |
| 20260503001511 | 59 | 213 | 3.0 | 7.0 | 0.00 | 0.00 | 0.00 | 53 | 1012.4 |
| 20260503000009 | 59 | 224 | 2.0 | 5.0 | 0.00 | 0.00 | 0.00 | 54 | 1012.5 |
| 20260502234506 | 58 | 222 | 2.0 | 4.0 | 0.00 | 0.00 | 0.00 | 55 | 1012.7 |
| 20260502233004 | 58 | 222 | 1.0 | 3.0 | 0.00 | 0.00 | 0.00 | 56 | 1012.8 |
| 20260502231506 | 58 | 222 | 2.0 | 4.0 | 0.00 | 0.00 | 0.00 | 56 | 1012.9 |
| 20260502230100 | 58 | 222 | 2.0 | 4.0 | 0.00 | 0.00 | 0.00 | 58 | 1013.0 |
| 20260502224557 | 57 | 222 | 1.0 | 3.0 | 0.00 | 0.00 | 0.00 | 64 | 1013.1 |
| 20260502223056 | 57 | 222 | 0.0 | 0.0 | 0.00 | 0.00 | 0.00 | 67 | 1013.1 |
| 20260502221556 | 57 | 222 | 0.0 | 0.0 | 0.00 | 0.00 | 0.00 | 68 | 1013.2 |
| 20260502220101 | 57 | 222 | 0.0 | 0.0 | 0.00 | 0.00 | 0.00 | 66 | 1013.3 |
| 20260502214551 | 58 | 222 | 0.0 | 0.0 | 0.00 | 0.00 | 0.00 | 63 | 1013.3 |
| 20260502213050 | 59 | 222 | 0.0 | 0.0 | 0.00 | 0.00 | 0.00 | 61 | 1013.5 |
| 20260502211549 | 60 | 222 | 0.0 | 0.0 | 0.00 | 0.00 | 0.00 | 60 | 1013.6 |
| 20260502210056 | 61 | 222 | 0.0 | 0.0 | 0.00 | 0.00 | 0.00 | 59 | 1013.7 |
| 20260502204545 | 62 | 222 | 0.0 | 2.0 | 0.00 | 0.00 | 0.00 | 57 | 1013.8 |
| 20260502203048 | 62 | 222 | 1.0 | 2.0 | 0.00 | 0.00 | 0.00 | 56 | 1013.9 |
| 20260502201545 | 64 | 222 | 0.0 | 0.0 | 0.00 | 0.00 | 0.00 | 56 | 1014.0 |
| 20260502200043 | 65 | 222 | 0.0 | 0.0 | 0.00 | 0.00 | 0.00 | 52 | 1014.1 |
| 20260502194542 | 66 | 222 | 0.0 | 2.0 | 0.00 | 0.00 | 0.00 | 49 | 1014.2 |
| 20260502193042 | 67 | 222 | 1.0 | 2.0 | 0.00 | 0.00 | 0.00 | 47 | 1014.2 |
| 20260502191542 | 69 | 222 | 0.0 | 0.0 | 0.00 | 0.00 | 0.00 | 45 | 1014.3 |
| 20260502190045 | 71 | 222 | 0.0 | 0.0 | 0.00 | 0.00 | 0.00 | 40 | 1014.3 |
| 20260502184549 | 73 | 222 | 0.0 | 0.0 | 0.00 | 0.00 | 0.00 | 37 | 1014.3 |
| 20260502183041 | 74 | 222 | 1.0 | 3.0 | 0.00 | 0.00 | 0.00 | 35 | 1014.2 |
| 20260502181540 | 75 | 222 | 0.0 | 3.0 | 0.00 | 0.00 | 0.00 | 33 | 1014.1 |
| 20260502163031 | 78 | 208 | 6.0 | 11.0 | 0.00 | 0.00 | 0.00 | 26 | 1014.6 |
| 20260502161529 | 79 | 194 | 8.0 | 12.0 | 0.00 | 0.00 | 0.00 | 25 | 1014.8 |
| 20260502151521 | 79 | 284 | 4.0 | 10.0 | 0.00 | 0.00 | 0.00 | 26 | 1015.6 |
| 20260502130104 | 77 | 213 | 6.0 | 15.0 | 0.00 | 0.00 | 0.00 | 26 | 1017.7 |
| 20260502123101 | 77 | 257 | 5.0 | 18.0 | 0.00 | 0.00 | 0.00 | 29 | 1018.0 |
| 20260502121603 | 77 | 229 | 6.0 | 11.0 | 0.00 | 0.00 | 0.00 | 28 | 1018.2 |
| 20260502114644 | 75 | 203 | 8.0 | 17.0 | 0.00 | 0.00 | 0.00 | 31 | 1018.8 |
| 20260502113043 | 75 | 202 | 10.0 | 18.0 | 0.00 | 0.00 | 0.00 | 31 | 1019.0 |
| 20260502111542 | 75 | 244 | 10.0 | 18.0 | 0.00 | 0.00 | 0.00 | 31 | 1019.1 |
| 20260502110042 | 75 | 204 | 6.0 | 13.0 | 0.00 | 0.00 | 0.00 | 32 | 1019.3 |
| 20260502104542 | 74 | 210 | 5.0 | 15.0 | 0.00 | 0.00 | 0.00 | 33 | 1019.4 |
| 20260502103045 | 74 | 206 | 8.0 | 16.0 | 0.00 | 0.00 | 0.00 | 33 | 1019.6 |
| 20260502101548 | 74 | 217 | 5.0 | 15.0 | 0.00 | 0.00 | 0.00 | 34 | 1019.8 |
| 20260502091521 | 72 | 209 | 6.0 | 16.0 | 0.00 | 0.00 | 0.00 | 36 | 1020.4 |
| 20260502070058 | 65 | 204 | 6.0 | 13.0 | 0.00 | 0.00 | 0.00 | 46 | 1021.3 |
| 20260502064559 | 64 | 224 | 3.0 | 8.0 | 0.00 | 0.00 | 0.00 | 50 | 1021.2 |
| 20260502063054 | 62 | 220 | 2.0 | 8.0 | 0.00 | 0.00 | 0.00 | 54 | 1021.3 |
| 20260502061546 | 60 | 199 | 4.0 | 8.0 | 0.00 | 0.00 | 0.00 | 56 | 1021.4 |
| 20260502060041 | 58 | 200 | 5.0 | 9.0 | 0.00 | 0.00 | 0.00 | 60 | 1021.4 |
| 20260502054536 | 56 | 219 | 1.0 | 5.0 | 0.00 | 0.00 | 0.00 | 65 | 1021.6 |
| 20260502053032 | 54 | 214 | 0.0 | 0.0 | 0.00 | 0.00 | 0.00 | 69 | 1021.6 |
| 20260502051528 | 52 | 214 | 0.0 | 0.0 | 0.00 | 0.00 | 0.00 | 72 | 1021.7 |
| 20260502050027 | 51 | 214 | 0.0 | 0.0 | 0.00 | 0.00 | 0.00 | 73 | 1021.6 |
| 20260502044525 | 49 | 214 | 0.0 | 0.0 | 0.00 | 0.00 | 0.00 | 78 | 1021.6 |
| 20260502043025 | 47 | 214 | 0.0 | 0.0 | 0.00 | 0.00 | 0.00 | 80 | 1021.7 |
| 20260502041534 | 46 | 214 | 0.0 | 2.0 | 0.00 | 0.00 | 0.00 | 81 | 1021.7 |
| 20260502040026 | 45 | 214 | 0.0 | 2.0 | 0.00 | 0.00 | 0.00 | 81 | 1021.7 |
| 20260502034530 | 45 | 214 | 1.0 | 2.0 | 0.00 | 0.00 | 0.00 | 81 | 1021.7 |
| 20260502033022 | 46 | 214 | 0.0 | 2.0 | 0.00 | 0.00 | 0.00 | 79 | 1021.8 |
| 20260502031521 | 46 | 214 | 1.0 | 2.0 | 0.00 | 0.00 | 0.00 | 80 | 1021.8 |
| 20260502030020 | 46 | 214 | 1.0 | 3.0 | 0.00 | 0.00 | 0.00 | 80 | 1021.9 |
| 20260502024519 | 47 | 213 | 3.0 | 4.0 | 0.00 | 0.00 | 0.00 | 80 | 1021.9 |
| 20260502023019 | 46 | 222 | 1.0 | 3.0 | 0.00 | 0.00 | 0.00 | 81 | 1022.0 |
| 20260502021517 | 45 | 222 | 1.0 | 3.0 | 0.00 | 0.00 | 0.00 | 82 | 1022.0 |
| 20260502020020 | 45 | 222 | 0.0 | 2.0 | 0.00 | 0.00 | 0.00 | 81 | 1022.1 |
| 20260502014513 | 45 | 222 | 0.0 | 0.0 | 0.00 | 0.00 | 0.00 | 80 | 1022.1 |
| 20260502013011 | 46 | 222 | 0.0 | 2.0 | 0.00 | 0.00 | 0.00 | 80 | 1022.2 |
| 20260502011528 | 46 | 222 | 0.0 | 0.0 | 0.00 | 0.00 | 0.00 | 78 | 1022.4 |
| 20260502010005 | 47 | 222 | 0.0 | 0.0 | 0.00 | 0.00 | 0.00 | 78 | 1022.5 |
| 20260502004503 | 48 | 222 | 0.0 | 0.0 | 0.00 | 0.00 | 0.00 | 77 | 1022.6 |